When you browse on this site, cookies collect data to enhance your experience and personalize the content and advertising you see.
Visit our Privacy Policy to learn more. By continuing to use the site, you agree to this use of cookies and data.
  • In France
  • List of Countries
  • For 7 days
  • Water Temperature
  • Weather Map
  • Weather Widgets
  • user-avatar
    Login

    Hourly Weather Weining

    Today, 21 September, Saturday

    Time Temperature Precipitation Wind Pressure Humidity
    00:00 +9°C° 0 mm 2 mps 589 mmHg 88%
    01:00 +8°C° 0 mm 2 mps 589 mmHg 87%
    02:00 +8°C° 0 mm 2 mps 589 mmHg 88%
    03:00 +8°C° 0 mm 2 mps 589 mmHg 89%
    04:00 +7°C° 0 mm 2 mps 588 mmHg 90%
    05:00 +8°C° 0 mm 2 mps 589 mmHg 87%
    06:00 +9°C° 0 mm 2 mps 589 mmHg 84%
    07:00 +9°C° 0 mm 2 mps 590 mmHg 82%
    08:00 +10°C° 0 mm 3 mps 590 mmHg 76%
    09:00 +12°C° 0 mm 4 mps 591 mmHg 70%
    10:00 +13°C° 0 mm 5 mps 591 mmHg 65%
    11:00 +14°C° 0 mm 6 mps 591 mmHg 63%
    12:00 +14°C° 0 mm 6 mps 591 mmHg 61%
    13:00 +15°C° 0 mm 7 mps 591 mmHg 59%
    14:00 +15°C° 0 mm 7 mps 591 mmHg 61%
    15:00 +15°C° 0 mm 6 mps 590 mmHg 63%
    16:00 +14°C° 0 mm 6 mps 590 mmHg 65%
    17:00 +13°C° 0 mm 5 mps 589 mmHg 73%
    18:00 +11°C° 0 mm 4 mps 589 mmHg 80%
    19:00 +9°C° 0 mm 2 mps 588 mmHg 87%
    20:00 +9°C° 0 mm 2 mps 588 mmHg 86%
    21:00 +8°C° 0 mm 2 mps 589 mmHg 85%
    22:00 +9°C° 0 mm 1 mps 589 mmHg 85%
    23:00 +9°C° 0 mm 1 mps 589 mmHg 85%

    Tomorrow, 22 September, Sunday

    Time Temperature Precipitation Wind Pressure Humidity
    00:00 +9°C° 0 mm 1 mps 589 mmHg 85%
    01:00 +8°C° 0 mm 1 mps 589 mmHg 86%
    02:00 +8°C° 0 mm 1 mps 589 mmHg 86%
    03:00 +8°C° 0 mm 1 mps 588 mmHg 86%
    04:00 +8°C° 0 mm 1 mps 588 mmHg 86%
    05:00 +8°C° 0 mm 1 mps 589 mmHg 85%
    06:00 +9°C° 0 mm 1 mps 589 mmHg 84%
    07:00 +10°C° 0 mm 1 mps 590 mmHg 83%
    08:00 +10°C° 0 mm 2 mps 591 mmHg 76%
    09:00 +12°C° 0 mm 4 mps 591 mmHg 70%
    10:00 +14°C° 0 mm 5 mps 592 mmHg 63%
    11:00 +15°C° 0 mm 5 mps 592 mmHg 62%
    12:00 +15°C° 0 mm 5 mps 592 mmHg 61%
    13:00 +16°C° 0 mm 5 mps 592 mmHg 59%
    14:00 +15°C° 0 mm 5 mps 591 mmHg 61%
    15:00 +15°C° 0 mm 5 mps 591 mmHg 63%
    16:00 +15°C° 0 mm 5 mps 590 mmHg 65%
    17:00 +13°C° 0 mm 4 mps 590 mmHg 72%
    18:00 +12°C° 0 mm 2 mps 589 mmHg 79%
    19:00 +10°C° 0 mm 1 mps 589 mmHg 86%
    20:00 +10°C° 0 mm 1 mps 589 mmHg 87%
    21:00 +10°C° 0 mm 1 mps 590 mmHg 88%
    22:00 +9°C° 0 mm 1 mps 590 mmHg 89%
    23:00 +9°C° 0 mm 1 mps 590 mmHg 89%

    Day after tomorrow, 23 September, Monday

    Time Temperature Precipitation Wind Pressure Humidity
    00:00 +8°C° 0 mm 0 mps 589 mmHg 89%
    01:00 +8°C° 0 mm 0 mps 589 mmHg 89%
    02:00 +8°C° 0 mm 0 mps 589 mmHg 89%
    03:00 +7°C° 0 mm 0 mps 589 mmHg 89%
    04:00 +7°C° 0 mm 0 mps 588 mmHg 89%
    05:00 +8°C° 0 mm 0 mps 589 mmHg 87%
    06:00 +9°C° 0 mm 0 mps 590 mmHg 86%
    07:00 +9°C° 0 mm 0 mps 591 mmHg 84%
    08:00 +11°C° 0 mm 0 mps 591 mmHg 79%
    09:00 +14°C° 0 mm 1 mps 592 mmHg 74%
    10:00 +16°C° 0 mm 1 mps 593 mmHg 68%
    11:00 +16°C° 0.1 mm 1 mps 593 mmHg 68%
    12:00 +16°C° 0.1 mm 2 mps 592 mmHg 67%
    13:00 +16°C° 0.1 mm 2 mps 592 mmHg 67%
    14:00 +16°C° 0.3 mm 2 mps 592 mmHg 70%
    15:00 +16°C° 0.3 mm 2 mps 591 mmHg 73%
    16:00 +14°C° 0.3 mm 3 mps 591 mmHg 77%
    17:00 +14°C° 0.3 mm 2 mps 591 mmHg 80%
    18:00 +13°C° 0.3 mm 2 mps 591 mmHg 84%
    19:00 +13°C° 0.3 mm 2 mps 591 mmHg 88%
    20:00 +12°C° 0 mm 1 mps 591 mmHg 89%
    21:00 +12°C° 0 mm 1 mps 591 mmHg 89%
    22:00 +11°C° 0 mm 1 mps 591 mmHg 90%
    23:00 +11°C° 0 mm 1 mps 591 mmHg 90%

    24 September, Tuesday

    Time Temperature Precipitation Wind Pressure Humidity
    00:00 +11°C° 0 mm 1 mps 591 mmHg 91%
    01:00 +10°C° 0 mm 0 mps 590 mmHg 91%
    02:00 +10°C° 0 mm 0 mps 590 mmHg 91%
    03:00 +10°C° 0 mm 0 mps 590 mmHg 91%
    04:00 +9°C° 0 mm 0 mps 590 mmHg 91%
    05:00 +10°C° 0 mm 0 mps 590 mmHg 90%
    06:00 +10°C° 0 mm 0 mps 591 mmHg 89%
    07:00 +10°C° 0 mm 0 mps 591 mmHg 88%
    08:00 +12°C° 0.1 mm 1 mps 592 mmHg 84%
    09:00 +13°C° 0.1 mm 1 mps 592 mmHg 80%
    10:00 +15°C° 0.1 mm 1 mps 593 mmHg 76%
    11:00 +15°C° 0.2 mm 2 mps 593 mmHg 74%
    12:00 +15°C° 0.2 mm 2 mps 592 mmHg 73%
    13:00 +16°C° 0.2 mm 3 mps 592 mmHg 72%
    14:00 +14°C° 0.3 mm 3 mps 591 mmHg 76%
    15:00 +13°C° 0.3 mm 3 mps 591 mmHg 79%
    16:00 +13°C° 0.3 mm 3 mps 590 mmHg 82%
    17:00 +12°C° 0.2 mm 3 mps 590 mmHg 85%
    18:00 +13°C° 0.2 mm 2 mps 591 mmHg 87%
    19:00 +12°C° 0.2 mm 2 mps 591 mmHg 89%
    20:00 +12°C° 0.1 mm 2 mps 591 mmHg 90%
    21:00 +12°C° 0.1 mm 1 mps 592 mmHg 91%
    22:00 +11°C° 0.1 mm 1 mps 592 mmHg 92%
    23:00 +11°C° 0.3 mm 1 mps 592 mmHg 93%

    25 September, Wednesday

    Time Temperature Precipitation Wind Pressure Humidity
    00:00 +11°C° 0.3 mm 1 mps 591 mmHg 93%
    01:00 +11°C° 0.3 mm 1 mps 591 mmHg 94%
    02:00 +11°C° 0.4 mm 1 mps 591 mmHg 94%
    03:00 +11°C° 0.4 mm 1 mps 591 mmHg 94%
    04:00 +10°C° 0.4 mm 1 mps 590 mmHg 94%
    05:00 +10°C° 0.2 mm 1 mps 591 mmHg 94%
    06:00 +10°C° 0.2 mm 1 mps 591 mmHg 93%
    07:00 +10°C° 0.2 mm 1 mps 591 mmHg 92%
    08:00 +11°C° 0 mm 1 mps 592 mmHg 88%
    09:00 +12°C° 0 mm 1 mps 592 mmHg 83%
    10:00 +13°C° 0 mm 1 mps 593 mmHg 78%
    11:00 +13°C° 0.1 mm 1 mps 593 mmHg 78%
    12:00 +14°C° 0.1 mm 1 mps 592 mmHg 77%
    13:00 +14°C° 0.1 mm 1 mps 592 mmHg 77%
    14:00 +14°C° 0.3 mm 1 mps 592 mmHg 76%
    15:00 +15°C° 0.3 mm 1 mps 592 mmHg 75%
    16:00 +15°C° 0.3 mm 1 mps 591 mmHg 73%
    17:00 +14°C° 0.2 mm 1 mps 591 mmHg 79%
    18:00 +13°C° 0.2 mm 1 mps 591 mmHg 84%
    19:00 +11°C° 0.2 mm 1 mps 590 mmHg 89%
    20:00 +10°C° 0 mm 0 mps 591 mmHg 90%
    21:00 +9°C° 0 mm 0 mps 591 mmHg 91%
    22:00 +9°C° 0 mm 0 mps 591 mmHg 92%
    23:00 +9°C° 0 mm 0 mps 590 mmHg 93%

    26 September, Thursday

    Time Temperature Precipitation Wind Pressure Humidity
    00:00 +9°C° 0 mm 0 mps 590 mmHg 93%
    01:00 +9°C° 0 mm 0 mps 590 mmHg 93%
    02:00 +8°C° 0 mm 0 mps 589 mmHg 93%
    03:00 +8°C° 0 mm 0 mps 589 mmHg 93%
    04:00 +8°C° 0 mm 0 mps 589 mmHg 94%
    05:00 +8°C° 0 mm 0 mps 589 mmHg 92%
    06:00 +9°C° 0 mm 0 mps 589 mmHg 91%
    07:00 +10°C° 0 mm 0 mps 590 mmHg 90%
    08:00 +12°C° 0 mm 0 mps 591 mmHg 82%
    09:00 +14°C° 0 mm 0 mps 592 mmHg 74%
    10:00 +16°C° 0 mm 0 mps 593 mmHg 65%
    11:00 +18°C° 0 mm 1 mps 592 mmHg 62%
    12:00 +19°C° 0 mm 1 mps 592 mmHg 58%
    13:00 +20°C° 0 mm 1 mps 592 mmHg 54%
    14:00 +18°C° 0 mm 2 mps 591 mmHg 55%
    15:00 +18°C° 0 mm 2 mps 591 mmHg 56%
    16:00 +18°C° 0 mm 2 mps 591 mmHg 57%
    17:00 +16°C° 0 mm 2 mps 590 mmHg 66%
    18:00 +14°C° 0 mm 2 mps 589 mmHg 76%
    19:00 +12°C° 0 mm 1 mps 589 mmHg 85%
    20:00 +12°C° 0 mm 1 mps 589 mmHg 87%
    21:00 +11°C° 0 mm 1 mps 589 mmHg 88%
    22:00 +10°C° 0 mm 0 mps 589 mmHg 90%
    23:00 +9°C° 0 mm 0 mps 589 mmHg 91%
    Show more